| time (UTC) | temp F | wind direction | speed knots | gust knots | rain 1hr in | rain 24hr in | rain mn in | humidity % | barometer mb |
| 20260507083016 | 66 | 113 | 2.6 | 7.0 | 0.00 | 0.65 | 0.52 | 81 | 1015.8 |
| 20260507082018 | 65 | 158 | 6.1 | 11.3 | 0.00 | 0.65 | 0.52 | 81 | 1015.7 |
| 20260507081016 | 65 | 135 | 7.0 | 10.4 | 0.00 | 0.65 | 0.52 | 81 | 1015.8 |
| 20260507080017 | 65 | 158 | 5.2 | 11.3 | 0.00 | 0.65 | 0.52 | 81 | 1015.9 |
| 20260507075017 | 65 | 135 | 5.2 | 8.7 | 0.00 | 0.65 | 0.52 | 82 | 1015.9 |
| 20260507074017 | 65 | 90 | 7.0 | 9.6 | 0.00 | 0.65 | 0.52 | 81 | 1015.9 |
| 20260507073017 | 64 | 113 | 6.1 | 9.6 | 0.00 | 0.65 | 0.52 | 81 | 1015.9 |
| 20260507072016 | 64 | 113 | 7.8 | 12.2 | 0.00 | 0.65 | 0.52 | 81 | 1015.9 |
| 20260507071016 | 63 | 90 | 7.8 | 11.3 | 0.00 | 0.65 | 0.52 | 82 | 1016.1 |
| 20260507070016 | 64 | 90 | 7.0 | 11.3 | 0.00 | 0.65 | 0.52 | 83 | 1015.9 |
| 20260507065233 | 63 | 113 | 7.8 | 11.3 | 0.00 | 0.65 | 0.52 | 84 | 1016.0 |
| 20260507064228 | 63 | 135 | 5.2 | 10.4 | 0.00 | 0.65 | 0.52 | 86 | 1015.8 |
| 20260507063016 | 62 | 90 | 7.0 | 10.4 | 0.00 | 0.65 | 0.52 | 86 | 1015.6 |
| 20260507062016 | 61 | 90 | 9.6 | 11.3 | 0.00 | 0.65 | 0.52 | 87 | 1015.6 |
| 20260507061016 | 61 | 90 | 7.8 | 12.2 | 0.00 | 0.65 | 0.52 | 89 | 1015.3 |
| 20260507060017 | 61 | 90 | 8.7 | 11.3 | 0.00 | 0.65 | 0.52 | 90 | 1015.3 |
| 20260507055017 | 61 | 90 | 7.8 | 9.6 | 0.00 | 0.65 | 0.52 | 91 | 1015.2 |
| 20260507054016 | 60 | 90 | 7.8 | 11.3 | 0.00 | 0.65 | 0.52 | 92 | 1015.1 |
| 20260507053229 | 60 | 68 | 7.8 | 11.3 | 0.00 | 0.65 | 0.52 | 92 | 1015.2 |
| 20260507052016 | 60 | 90 | 7.0 | 9.6 | 0.00 | 0.65 | 0.52 | 93 | 1015.2 |
| 20260507051019 | 59 | 90 | 7.0 | 9.6 | 0.00 | 0.65 | 0.52 | 93 | 1015.2 |
| 20260507050018 | 59 | 90 | 7.8 | 11.3 | 0.00 | 0.65 | 0.52 | 93 | 1015.2 |
| 20260507045017 | 59 | 90 | 7.8 | 10.4 | 0.00 | 0.65 | 0.52 | 93 | 1015.1 |
| 20260507044442 | 59 | 90 | 7.8 | 11.3 | 0.00 | 0.65 | 0.52 | 94 | 1015.1 |
| 20260507043018 | 59 | 90 | 7.0 | 10.4 | 0.00 | 0.65 | 0.52 | 94 | 1014.9 |
| 20260507042017 | 59 | 68 | 7.8 | 10.4 | 0.00 | 0.65 | 0.52 | 94 | 1014.8 |
| 20260507041018 | 59 | 68 | 8.7 | 12.2 | 0.00 | 0.66 | 0.52 | 94 | 1014.8 |
| 20260507040017 | 59 | 68 | 8.7 | 11.3 | 0.00 | 0.66 | 0.52 | 95 | 1014.6 |
| 20260507035022 | 59 | 68 | 7.8 | 11.3 | 0.00 | 0.66 | 0.52 | 95 | 1014.7 |
| 20260507034017 | 59 | 68 | 7.8 | 12.2 | 0.00 | 0.68 | 0.52 | 95 | 1014.7 |
| 20260507033017 | 59 | 90 | 8.7 | 11.3 | 0.00 | 0.69 | 0.52 | 95 | 1014.8 |
| 20260507032227 | 59 | 90 | 8.7 | 11.3 | 0.00 | 0.71 | 0.52 | 95 | 1014.8 |
| 20260507031017 | 59 | 90 | 8.7 | 11.3 | 0.00 | 0.71 | 0.52 | 95 | 1014.9 |
| 20260507030017 | 59 | 68 | 8.7 | 13.0 | 0.00 | 0.71 | 0.52 | 95 | 1014.8 |
| 20260507025230 | 59 | 90 | 8.7 | 11.3 | 0.00 | 0.71 | 0.52 | 95 | 1014.8 |
| 20260507024022 | 59 | 90 | 9.6 | 13.0 | 0.00 | 0.71 | 0.52 | 96 | 1015.0 |
| 20260507023017 | 59 | 90 | 7.8 | 11.3 | 0.00 | 0.71 | 0.52 | 96 | 1014.9 |
| 20260507022017 | 59 | 90 | 9.6 | 13.0 | 0.00 | 0.71 | 0.52 | 96 | 1015.0 |
| 20260507021019 | 59 | 90 | 9.6 | 12.2 | 0.01 | 0.71 | 0.52 | 96 | 1014.8 |
| 20260507020017 | 59 | 90 | 9.6 | 13.0 | 0.01 | 0.72 | 0.52 | 96 | 1014.8 |
| 20260507015017 | 59 | 90 | 8.7 | 12.2 | 0.01 | 0.72 | 0.52 | 96 | 1014.8 |
| 20260507014017 | 59 | 90 | 7.8 | 10.4 | 0.01 | 0.73 | 0.52 | 96 | 1014.9 |
| 20260507013232 | 59 | 90 | 8.7 | 12.2 | 0.01 | 0.76 | 0.52 | 96 | 1014.9 |
| 20260507012228 | 59 | 90 | 7.0 | 10.4 | 0.02 | 0.79 | 0.52 | 96 | 1014.8 |
| 20260507011229 | 59 | 90 | 7.0 | 8.7 | 0.05 | 0.78 | 0.51 | 96 | 1014.8 |
| 20260507010017 | 59 | 90 | 8.7 | 11.3 | 0.05 | 0.78 | 0.51 | 96 | 1014.9 |
| 20260507005017 | 59 | 90 | 9.6 | 12.2 | 0.05 | 0.78 | 0.51 | 96 | 1015.1 |
| 20260507004018 | 59 | 113 | 9.6 | 13.9 | 0.05 | 0.78 | 0.51 | 96 | 1015.1 |
| 20260507003017 | 60 | 90 | 10.4 | 13.9 | 0.05 | 0.78 | 0.51 | 96 | 1015.0 |
| 20260507002017 | 60 | 113 | 8.7 | 12.2 | 0.04 | 0.78 | 0.50 | 96 | 1015.0 |
| 20260507001017 | 60 | 113 | 9.6 | 13.0 | 0.00 | 0.74 | 0.46 | 96 | 1014.9 |
| 20260507000017 | 60 | 113 | 9.6 | 13.9 | 0.00 | 0.75 | 0.46 | 96 | 1014.9 |
| 20260506235017 | 60 | 113 | 9.6 | 13.0 | 0.00 | 0.75 | 0.46 | 95 | 1014.9 |
| 20260506234017 | 60 | 113 | 12.2 | 17.4 | 0.00 | 0.75 | 0.46 | 95 | 1015.1 |
| 20260506233228 | 60 | 135 | 9.6 | 16.5 | 0.05 | 0.75 | 0.46 | 95 | 1015.0 |
| 20260506232016 | 60 | 113 | 13.9 | 20.0 | 0.20 | 0.75 | 0.46 | 95 | 1014.8 |
| 20260506231017 | 61 | 113 | 13.0 | 20.0 | 0.35 | 0.75 | 0.46 | 95 | 1014.6 |
| 20260506230017 | 61 | 113 | 16.5 | 24.3 | 0.46 | 0.75 | 0.46 | 95 | 1014.4 |
| 20260506225017 | 61 | 113 | 13.9 | 18.2 | 0.52 | 0.75 | 0.46 | 95 | 1014.7 |
| 20260506224017 | 61 | 113 | 13.0 | 17.4 | 0.53 | 0.75 | 0.46 | 96 | 1014.7 |
| 20260506223016 | 61 | 113 | 12.2 | 17.4 | 0.48 | 0.70 | 0.42 | 96 | 1015.0 |
| 20260506222017 | 61 | 68 | 7.0 | 9.6 | 0.33 | 0.54 | 0.26 | 96 | 1015.0 |
| 20260506221017 | 61 | 68 | 7.0 | 11.3 | 0.19 | 0.40 | 0.12 | 96 | 1015.0 |
| 20260506220017 | 61 | 90 | 9.6 | 11.3 | 0.07 | 0.28 | 0.28 | 96 | 1015.0 |
| 20260506215016 | 61 | 90 | 8.7 | 12.2 | 0.02 | 0.23 | 0.23 | 96 | 1015.0 |
| 20260506214016 | 61 | 113 | 8.7 | 12.2 | 0.01 | 0.22 | 0.22 | 96 | 1015.1 |
| 20260506213017 | 62 | 135 | 9.6 | 15.6 | 0.02 | 0.22 | 0.22 | 96 | 1015.2 |
| 20260506212017 | 62 | 135 | 11.3 | 15.6 | 0.02 | 0.21 | 0.21 | 96 | 1015.2 |
| 20260506211016 | 62 | 135 | 11.3 | 16.5 | 0.02 | 0.21 | 0.21 | 96 | 1015.2 |
| 20260506210016 | 62 | 135 | 11.3 | 16.5 | 0.03 | 0.21 | 0.21 | 96 | 1015.2 |
| 20260506205017 | 62 | 135 | 9.6 | 14.8 | 0.03 | 0.21 | 0.21 | 96 | 1015.2 |
| 20260506204016 | 62 | 135 | 9.6 | 13.0 | 0.03 | 0.21 | 0.21 | 96 | 1015.4 |
| 20260506203016 | 62 | 135 | 7.8 | 12.2 | 0.02 | 0.20 | 0.20 | 96 | 1015.3 |
| 20260506202016 | 62 | 158 | 7.8 | 13.0 | 0.02 | 0.20 | 0.20 | 95 | 1015.3 |
| 20260506201016 | 62 | 135 | 8.7 | 13.9 | 0.01 | 0.19 | 0.19 | 95 | 1015.2 |
| 20260506200016 | 62 | 135 | 10.4 | 15.6 | 0.00 | 0.18 | 0.18 | 95 | 1015.2 |
| 20260506195016 | 62 | 158 | 7.0 | 12.2 | 0.00 | 0.18 | 0.18 | 95 | 1014.9 |
| 20260506194016 | 62 | 135 | 11.3 | 17.4 | 0.00 | 0.18 | 0.18 | 95 | 1014.7 |
| 20260506193226 | 62 | 135 | 12.2 | 16.5 | 0.01 | 0.18 | 0.18 | 95 | 1014.4 |
| 20260506192016 | 62 | 135 | 13.9 | 20.0 | 0.01 | 0.18 | 0.18 | 95 | 1014.4 |
| 20260506191016 | 62 | 135 | 11.3 | 21.7 | 0.02 | 0.18 | 0.18 | 95 | 1014.2 |
| 20260506190232 | 62 | 135 | 9.6 | 13.9 | 0.02 | 0.18 | 0.18 | 95 | 1014.1 |
| 20260506185019 | 62 | 135 | 10.4 | 17.4 | 0.02 | 0.18 | 0.18 | 95 | 1014.1 |
| 20260506184017 | 62 | 113 | 13.9 | 22.6 | 0.02 | 0.18 | 0.18 | 95 | 1014.1 |
| 20260506183017 | 62 | 135 | 13.0 | 18.2 | 0.02 | 0.17 | 0.17 | 95 | 1013.9 |
| 20260506182018 | 63 | 135 | 12.2 | 17.4 | 0.02 | 0.17 | 0.17 | 95 | 1013.9 |
| 20260506181441 | 63 | 135 | 12.2 | 18.2 | 0.02 | 0.17 | 0.17 | 95 | 1014.0 |
| 20260506180017 | 63 | 135 | 13.0 | 18.2 | 0.01 | 0.16 | 0.16 | 95 | 1014.0 |
| 20260506175017 | 63 | 135 | 10.4 | 15.6 | 0.01 | 0.16 | 0.16 | 94 | 1014.1 |
| 20260506174017 | 63 | 135 | 8.7 | 12.2 | 0.01 | 0.16 | 0.16 | 94 | 1014.1 |
| 20260506173017 | 63 | 158 | 10.4 | 14.8 | 0.00 | 0.15 | 0.15 | 94 | 1014.2 |
| 20260506172017 | 63 | 135 | 10.4 | 17.4 | 0.00 | 0.15 | 0.15 | 93 | 1014.1 |
| 20260506171017 | 63 | 158 | 7.8 | 13.0 | 0.00 | 0.15 | 0.15 | 92 | 1014.0 |
| 20260506170020 | 64 | 158 | 9.6 | 15.6 | 0.00 | 0.15 | 0.15 | 93 | 1014.1 |
| 20260506165018 | 64 | 158 | 11.3 | 20.0 | 0.00 | 0.15 | 0.15 | 92 | 1014.1 |
| 20260506164021 | 64 | 135 | 11.3 | 16.5 | 0.00 | 0.15 | 0.15 | 91 | 1014.2 |
| 20260506163017 | 64 | 135 | 13.0 | 17.4 | 0.00 | 0.15 | 0.15 | 90 | 1014.2 |
| 20260506162019 | 64 | 158 | 9.6 | 16.5 | 0.00 | 0.15 | 0.15 | 89 | 1014.2 |
| 20260506161018 | 64 | 135 | 13.9 | 20.9 | 0.00 | 0.15 | 0.15 | 88 | 1014.5 |
| 20260506160018 | 64 | 135 | 13.9 | 21.7 | 0.00 | 0.15 | 0.15 | 88 | 1014.4 |
| 20260506155018 | 64 | 135 | 12.2 | 18.2 | 0.00 | 0.15 | 0.15 | 88 | 1014.4 |
| 20260506154017 | 64 | 135 | 13.0 | 18.2 | 0.00 | 0.15 | 0.15 | 87 | 1014.4 |
| 20260506153017 | 64 | 135 | 13.0 | 20.9 | 0.00 | 0.15 | 0.15 | 87 | 1014.4 |
| 20260506152017 | 64 | 135 | 13.9 | 21.7 | 0.00 | 0.15 | 0.15 | 86 | 1014.2 |
| 20260506151018 | 64 | 135 | 13.9 | 20.9 | 0.00 | 0.15 | 0.15 | 86 | 1014.4 |
| 20260506150017 | 64 | 135 | 15.6 | 23.5 | 0.00 | 0.15 | 0.15 | 86 | 1014.3 |
| 20260506145017 | 64 | 135 | 13.9 | 20.9 | 0.00 | 0.15 | 0.15 | 85 | 1014.4 |
| 20260506144018 | 64 | 135 | 17.4 | 24.3 | 0.00 | 0.15 | 0.15 | 85 | 1014.3 |
| 20260506143017 | 65 | 135 | 13.9 | 24.3 | 0.00 | 0.15 | 0.15 | 85 | 1014.2 |
| 20260506142017 | 65 | 135 | 13.9 | 21.7 | 0.00 | 0.15 | 0.15 | 85 | 1014.1 |
| 20260506141018 | 65 | 113 | 13.9 | 23.5 | 0.00 | 0.15 | 0.15 | 85 | 1014.3 |
| 20260506140017 | 65 | 135 | 16.5 | 23.5 | 0.00 | 0.15 | 0.15 | 85 | 1014.3 |
| 20260506135017 | 65 | 113 | 16.5 | 23.5 | 0.00 | 0.15 | 0.15 | 84 | 1014.3 |
| 20260506134230 | 65 | 135 | 15.6 | 25.2 | 0.00 | 0.15 | 0.15 | 83 | 1014.6 |
| 20260506133017 | 65 | 135 | 15.6 | 22.6 | 0.00 | 0.15 | 0.15 | 84 | 1014.4 |
| 20260506132018 | 65 | 135 | 14.8 | 24.3 | 0.00 | 0.15 | 0.15 | 83 | 1014.4 |
| 20260506131017 | 65 | 135 | 13.0 | 23.5 | 0.00 | 0.15 | 0.15 | 84 | 1014.6 |
| 20260506130016 | 65 | 113 | 13.9 | 22.6 | 0.00 | 0.15 | 0.15 | 83 | 1014.7 |
| 20260506125016 | 65 | 135 | 13.0 | 20.0 | 0.00 | 0.15 | 0.15 | 84 | 1014.7 |
| 20260506124018 | 65 | 135 | 14.8 | 20.9 | 0.00 | 0.15 | 0.15 | 84 | 1014.8 |
| 20260506123017 | 64 | 135 | 12.2 | 17.4 | 0.00 | 0.15 | 0.15 | 85 | 1014.9 |
| 20260506122016 | 64 | 135 | 12.2 | 21.7 | 0.00 | 0.15 | 0.15 | 85 | 1014.8 |
| 20260506121016 | 64 | 135 | 13.0 | 19.1 | 0.00 | 0.15 | 0.15 | 85 | 1014.9 |
| 20260506120017 | 64 | 135 | 13.9 | 21.7 | 0.00 | 0.15 | 0.15 | 85 | 1015.1 |
| 20260506115018 | 64 | 113 | 12.2 | 17.4 | 0.00 | 0.15 | 0.15 | 85 | 1014.9 |
| 20260506114016 | 64 | 135 | 13.9 | 21.7 | 0.00 | 0.15 | 0.15 | 85 | 1015.0 |
| 20260506113016 | 64 | 135 | 13.9 | 20.9 | 0.00 | 0.15 | 0.15 | 85 | 1015.0 |
| 20260506112016 | 64 | 135 | 15.6 | 26.1 | 0.00 | 0.15 | 0.15 | 85 | 1014.9 |
| 20260506111016 | 64 | 135 | 13.9 | 21.7 | 0.00 | 0.15 | 0.15 | 85 | 1015.0 |
| 20260506110016 | 64 | 135 | 14.8 | 21.7 | 0.00 | 0.15 | 0.15 | 84 | 1014.7 |
| 20260506105229 | 65 | 135 | 14.8 | 20.9 | 0.00 | 0.15 | 0.15 | 84 | 1015.0 |
| 20260506104016 | 65 | 135 | 13.0 | 20.9 | 0.00 | 0.15 | 0.15 | 83 | 1015.2 |
| 20260506103444 | 65 | 135 | 14.8 | 25.2 | 0.00 | 0.15 | 0.15 | 81 | 1015.3 |
| 20260506102016 | 66 | 135 | 14.8 | 21.7 | 0.00 | 0.15 | 0.15 | 80 | 1015.1 |
| 20260506101016 | 65 | 135 | 14.8 | 21.7 | 0.00 | 0.15 | 0.15 | 81 | 1015.1 |
| 20260506100016 | 65 | 135 | 17.4 | 23.5 | 0.00 | 0.15 | 0.15 | 79 | 1015.2 |
| 20260506095016 | 65 | 135 | 17.4 | 24.3 | 0.00 | 0.15 | 0.15 | 77 | 1015.0 |
| 20260506094016 | 65 | 135 | 15.6 | 25.2 | 0.00 | 0.15 | 0.15 | 75 | 1015.1 |
| 20260506093440 | 65 | 135 | 14.8 | 22.6 | 0.00 | 0.15 | 0.15 | 75 | 1015.2 |
| 20260506092016 | 64 | 135 | 17.4 | 25.2 | 0.00 | 0.15 | 0.15 | 76 | 1014.9 |
| 20260506091229 | 65 | 135 | 17.4 | 23.5 | 0.00 | 0.15 | 0.15 | 77 | 1014.7 |
| 20260506090016 | 65 | 135 | 13.0 | 19.1 | 0.00 | 0.15 | 0.15 | 79 | 1014.5 |
| 20260506085016 | 64 | 135 | 13.0 | 19.1 | 0.00 | 0.15 | 0.15 | 78 | 1014.6 |
| 20260506084017 | 64 | 135 | 13.9 | 21.7 | 0.00 | 0.15 | 0.15 | 78 | 1014.8 |